Flag for Russia Weather past 2 weeks in Sochi, Russia

Now
63 °F

Clear.


Feels Like: 63 °F
Forecast: 61 / 80 °F
Wind: 8 mph from Northeast

Location: Adler

Current Time: May 26, 2015 at 3:37:47 AM

Latest Report: May 26, 2015 at 3:00 AM


Visibility: N/A

Pressure: 29.74 "Hg

Humidity: 77%

Dew point: 55 °F

Location of SochiLocation

Historic Weather in Sochi — Graph

°F

Sochi temperature yesterday

Maximum temperature yesterday: 81 °F (at 12:00 PM)
Minimum temperature yesterday: 63 °F (at 11:00 PM)
Average temperature yesterday: 71 °F

Past Weeks' High & Low Weather Summary

 TemperatureHumidityPressure
High84 °F (May 21, 10:30 AM)94% (May 11, 2:00 AM)30.15 "Hg (May 11, 2:00 AM)
Low50 °F (May 11, 2:00 AM)26% (May 20, 4:30 PM)29.74 "Hg (May 21, 4:00 PM)
Average64 °F68%29.96 "Hg
* Reported May 11 2:00 AM — May 26 2:30 AM, Sochi, Weather by CustomWeather, © 2015

Note: Actual official high and low records may vary slightly from our data, if they occured in-between our weather recording intervals... More about our weather records

Advertising

Sochi weather history for previous 24 hours

 ConditionsComfort  
Time TempWeatherWind HumidityBarometerVisibility
2:30 AM
Tue, May 26
63 °FClear.8 mph77%29.74 "HgN/A
2:00 AM64 °FClear.8 mph73%29.77 "HgN/A
1:30 AM64 °FClear.8 mph73%29.77 "HgN/A
1:00 AM63 °FClear.6 mph77%29.77 "HgN/A
12:30 AM64 °FClear.6 mph73%29.77 "HgN/A
11:30 PM
Mon, May 25
64 °FClear.6 mph73%29.77 "HgN/A
11:00 PM63 °FClear.3 mph83%29.77 "HgN/A
10:30 PM64 °FClear.3 mph78%29.77 "HgN/A
10:00 PM64 °FClear.1 mph83%29.77 "HgN/A
9:30 PM66 °FClear.3 mph73%29.77 "HgN/A
9:00 PM66 °FClear.1 mph73%29.77 "HgN/A
8:30 PM68 °FClear.1 mph78%29.77 "HgN/A
8:00 PM68 °FClear.1 mph78%29.77 "HgN/A
7:30 PM73 °FPassing clouds.3 mph61%29.77 "HgN/A
7:00 PM77 °FPassing clouds.No wind47%29.77 "HgN/A
6:30 PM77 °FPassing clouds.No wind47%29.77 "HgN/A
6:00 PM77 °FPassing clouds.3 mph47%29.77 "HgN/A
5:30 PM77 °FPassing clouds.3 mph47%29.77 "HgN/A
5:00 PM77 °FPassing clouds.6 mph47%29.77 "HgN/A
4:30 PM77 °FPassing clouds.6 mph47%29.77 "HgN/A
4:00 PM79 °FPassing clouds.6 mph45%29.77 "HgN/A
3:30 PM79 °FPassing clouds.8 mph42%29.77 "HgN/A
3:00 PM81 °FPassing clouds.3 mph37%29.77 "HgN/A
2:30 PM79 °FPassing clouds.6 mph42%29.77 "HgN/A
2:00 PM79 °FPassing clouds.6 mph39%29.80 "HgN/A
1:30 PM79 °FPassing clouds.6 mph39%29.80 "HgN/A
1:00 PM79 °FPassing clouds.6 mph42%29.80 "HgN/A
12:30 PM79 °FPassing clouds.6 mph51%29.80 "HgN/A
12:00 PM81 °FPassing clouds.6 mph39%29.80 "HgN/A
11:30 AM79 °FClear.10 mph45%29.80 "HgN/A
11:00 AM79 °FClear.8 mph42%29.83 "HgN/A
10:30 AM79 °FClear.6 mph42%29.80 "HgN/A
10:00 AM79 °FClear.6 mph42%29.83 "HgN/A
9:30 AM79 °FClear.1 mph42%29.80 "HgN/A
9:00 AM77 °FClear.6 mph51%29.80 "HgN/A
8:30 AM72 °FClear.10 mph57%29.80 "HgN/A
8:00 AM70 °FClear.10 mph60%29.80 "HgN/A
7:30 AM68 °FClear.13 mph64%29.80 "HgN/A
6:30 AM66 °FClear.10 mph68%29.80 "HgN/A
6:00 AM64 °FClear.10 mph68%29.80 "HgN/A
5:30 AM64 °FClear.10 mph68%29.80 "HgN/A
5:00 AM64 °FClear.10 mph68%29.77 "HgN/A
4:30 AM64 °FClear.8 mph68%29.77 "HgN/A
4:00 AM64 °FClear.8 mph68%29.77 "HgN/A
3:30 AM64 °FClear.10 mph73%29.77 "HgN/A
3:00 AM64 °FClear.10 mph73%29.80 "HgN/A
Weather by CustomWeather, © 2015

See weather overviewHow to use our weather pages